Location: Zagreb
(45.8000°N, 16.0000°E)
Time: 14:29:06
(UTC+02:00)

Vanguard 1 - Pass Details

Date: 15 August 2022
Orbit: 649 x 3832 km, 34.2° (Epoch: 25 September)

Event Time Altitude Azimuth Distance (km) Brightness Sun altitude
Rises 05:02:43 0° 241° (WSW) 5,477 - -9.1°
Exits shadow 05:05:40 10° 237° (WSW) 4,849 12.9 -8.7°
Reaches altitude 10° 05:05:48 10° 236° (WSW) 4,824 12.9 -8.6°
Maximum altitude 05:20:21 55° 164° (SSE) 3,660 12.9 -6.4°
Drops below altitude 10° 05:42:13 10° 96° (E) 6,940 15.5 -3.0°
Sets 05:47:47 0° 93° (E) 7,931 16.1 -2.1°
